| time (UTC) | temp F | wind direction | speed knots | gust knots | rain 1hr in | rain 24hr in | rain mn in | humidity % | barometer mb |
| 20260510011245 | 42 | 312 | 1.7 | 1.7 | 0.00 | 0.00 | 0.00 | 50 | 1009.5 |
| 20260510010742 | 42 | 304 | 2.6 | 3.5 | 0.00 | 0.00 | 0.00 | 49 | 1009.5 |
| 20260510010238 | 42 | 344 | 1.7 | 1.7 | 0.00 | 0.00 | 0.00 | 49 | 1009.1 |
| 20260510005736 | 42 | 359 | 2.6 | 2.6 | 0.00 | 0.00 | 0.00 | 49 | 1009.4 |
| 20260510005232 | 42 | 316 | 0.9 | 1.7 | 0.00 | 0.00 | 0.00 | 49 | 1009.3 |
| 20260510004730 | 42 | 269 | 3.5 | 5.2 | 0.00 | 0.00 | 0.00 | 49 | 1009.2 |
| 20260510004227 | 42 | 275 | 4.3 | 6.1 | 0.00 | 0.00 | 0.00 | 49 | 1009.3 |
| 20260510003725 | 42 | 354 | 3.5 | 3.5 | 0.00 | 0.00 | 0.00 | 49 | 1009.1 |
| 20260510003221 | 42 | 358 | 1.7 | 1.7 | 0.00 | 0.00 | 0.00 | 49 | 1009.0 |
| 20260510002719 | 43 | 336 | 2.6 | 2.6 | 0.00 | 0.00 | 0.00 | 49 | 1009.0 |
| 20260510002217 | 43 | 268 | 2.6 | 2.6 | 0.00 | 0.00 | 0.00 | 49 | 1009.0 |
| 20260510001714 | 43 | 4 | 0.9 | 1.7 | 0.00 | 0.00 | 0.00 | 50 | 1008.9 |
| 20260510001213 | 43 | 289 | 5.2 | 6.1 | 0.00 | 0.00 | 0.00 | 50 | 1008.7 |
| 20260510000708 | 43 | 294 | 2.6 | 3.5 | 0.00 | 0.00 | 0.00 | 51 | 1008.6 |
| 20260510000206 | 43 | 344 | 3.5 | 6.1 | 0.00 | 0.00 | 0.00 | 50 | 1008.6 |
| 20260509235702 | 44 | 1 | 3.5 | 5.2 | 0.00 | 0.00 | 0.00 | 50 | 1008.4 |
| 20260509235158 | 43 | 359 | 3.5 | 5.2 | 0.00 | 0.00 | 0.00 | 50 | 1008.4 |
| 20260509234655 | 43 | 288 | 3.5 | 6.1 | 0.00 | 0.00 | 0.00 | 51 | 1008.3 |
| 20260509234152 | 43 | 0 | 1.7 | 2.6 | 0.00 | 0.00 | 0.00 | 50 | 1008.1 |
| 20260509233650 | 43 | 298 | 1.7 | 1.7 | 0.00 | 0.00 | 0.00 | 50 | 1008.0 |
| 20260509233147 | 43 | 307 | 1.7 | 1.7 | 0.00 | 0.00 | 0.00 | 50 | 1007.9 |
| 20260509232643 | 43 | 275 | 4.3 | 7.0 | 0.00 | 0.00 | 0.00 | 50 | 1007.9 |
| 20260509232140 | 43 | 57 | 2.6 | 2.6 | 0.00 | 0.00 | 0.00 | 52 | 1008.1 |
| 20260509231637 | 43 | 1 | 2.6 | 3.5 | 0.00 | 0.00 | 0.00 | 52 | 1008.0 |
| 20260509231134 | 43 | 324 | 1.7 | 1.7 | 0.00 | 0.00 | 0.00 | 52 | 1008.0 |
| 20260509230631 | 43 | 274 | 3.5 | 3.5 | 0.00 | 0.00 | 0.00 | 52 | 1007.9 |
| 20260509230128 | 43 | 324 | 1.7 | 1.7 | 0.00 | 0.00 | 0.00 | 51 | 1007.8 |
| 20260509225624 | 44 | 294 | 5.2 | 6.1 | 0.00 | 0.00 | 0.00 | 51 | 1007.7 |
| 20260509225120 | 44 | 9 | 1.7 | 2.6 | 0.00 | 0.00 | 0.00 | 51 | 1007.7 |
| 20260509224615 | 44 | 338 | 3.5 | 5.2 | 0.00 | 0.00 | 0.00 | 51 | 1007.7 |
| 20260509224112 | 44 | 322 | 2.6 | 2.6 | 0.00 | 0.00 | 0.00 | 51 | 1007.6 |
| 20260509223609 | 44 | 351 | 5.2 | 8.7 | 0.00 | 0.00 | 0.00 | 51 | 1007.5 |
| 20260509223107 | 44 | 27 | 4.3 | 7.0 | 0.00 | 0.00 | 0.00 | 50 | 1007.5 |
| 20260509222603 | 45 | 35 | 2.6 | 3.5 | 0.00 | 0.00 | 0.00 | 50 | 1007.5 |
| 20260509222059 | 45 | 2 | 7.8 | 11.3 | 0.00 | 0.00 | 0.00 | 50 | 1007.3 |
| 20260509221554 | 45 | 291 | 5.2 | 8.7 | 0.00 | 0.00 | 0.00 | 49 | 1007.3 |
| 20260509221051 | 45 | 344 | 3.5 | 5.2 | 0.00 | 0.00 | 0.00 | 49 | 1007.0 |
| 20260509220546 | 45 | 316 | 5.2 | 7.8 | 0.00 | 0.00 | 0.00 | 49 | 1007.0 |
| 20260509220043 | 45 | 2 | 6.1 | 7.0 | 0.00 | 0.00 | 0.00 | 48 | 1006.8 |
| 20260509215538 | 46 | 35 | 3.5 | 6.1 | 0.00 | 0.00 | 0.00 | 46 | 1006.7 |
| 20260509215036 | 46 | 333 | 2.6 | 2.6 | 0.00 | 0.00 | 0.00 | 46 | 1006.6 |
| 20260509214533 | 46 | 296 | 8.7 | 12.2 | 0.00 | 0.00 | 0.00 | 45 | 1006.4 |
| 20260509214030 | 46 | 323 | 3.5 | 3.5 | 0.00 | 0.00 | 0.00 | 44 | 1006.4 |
| 20260509213526 | 46 | 327 | 7.0 | 13.0 | 0.00 | 0.00 | 0.00 | 45 | 1006.4 |
| 20260509213023 | 46 | 287 | 1.7 | 2.6 | 0.00 | 0.00 | 0.00 | 46 | 1006.2 |
| 20260509212520 | 46 | 298 | 1.7 | 1.7 | 0.00 | 0.00 | 0.00 | 44 | 1006.1 |
| 20260509212017 | 46 | 353 | 3.5 | 3.5 | 0.00 | 0.00 | 0.00 | 44 | 1006.1 |
| 20260509211513 | 46 | 3 | 3.5 | 3.5 | 0.00 | 0.00 | 0.00 | 44 | 1006.1 |
| 20260509211009 | 46 | 13 | 2.6 | 3.5 | 0.00 | 0.00 | 0.00 | 43 | 1005.7 |
| 20260509210506 | 46 | 351 | 3.5 | 7.0 | 0.00 | 0.00 | 0.00 | 45 | 1005.9 |
| 20260509210003 | 47 | 352 | 3.5 | 3.5 | 0.00 | 0.00 | 0.00 | 43 | 1005.8 |
| 20260509205457 | 47 | 333 | 1.7 | 3.5 | 0.00 | 0.00 | 0.00 | 42 | 1005.8 |
| 20260509204952 | 47 | 0 | 2.6 | 3.5 | 0.00 | 0.00 | 0.00 | 42 | 1005.5 |
| 20260509204449 | 47 | 346 | 4.3 | 5.2 | 0.00 | 0.00 | 0.00 | 42 | 1005.5 |
| 20260509203946 | 47 | 351 | 6.1 | 9.6 | 0.00 | 0.00 | 0.00 | 41 | 1005.5 |
| 20260509203441 | 48 | 327 | 6.1 | 8.7 | 0.00 | 0.00 | 0.00 | 41 | 1005.4 |
| 20260509202939 | 48 | 344 | 3.5 | 5.2 | 0.00 | 0.00 | 0.00 | 42 | 1005.3 |
| 20260509202435 | 47 | 22 | 1.7 | 1.7 | 0.00 | 0.00 | 0.00 | 43 | 1005.1 |
| 20260509201930 | 47 | 4 | 2.6 | 3.5 | 0.00 | 0.00 | 0.00 | 43 | 1004.9 |
| 20260509201425 | 48 | 30 | 4.3 | 7.0 | 0.00 | 0.00 | 0.00 | 41 | 1004.9 |
| 20260509200922 | 48 | 320 | 5.2 | 7.8 | 0.00 | 0.00 | 0.00 | 38 | 1004.7 |
| 20260509200417 | 50 | 359 | 3.5 | 5.2 | 0.00 | 0.00 | 0.00 | 37 | 1004.5 |
| 20260509195913 | 50 | 36 | 2.6 | 3.5 | 0.00 | 0.00 | 0.00 | 37 | 1004.4 |
| 20260509195408 | 51 | 268 | 4.3 | 6.1 | 0.00 | 0.00 | 0.00 | 37 | 1004.1 |
| 20260509194902 | 50 | 269 | 5.2 | 8.7 | 0.00 | 0.00 | 0.00 | 38 | 1004.2 |
| 20260509194359 | 49 | 22 | 4.3 | 6.1 | 0.00 | 0.00 | 0.00 | 40 | 1004.1 |
| 20260509193855 | 48 | 16 | 5.2 | 7.0 | 0.00 | 0.00 | 0.00 | 40 | 1004.1 |
| 20260509193350 | 48 | 319 | 3.5 | 6.1 | 0.00 | 0.00 | 0.00 | 41 | 1004.2 |
| 20260509192846 | 48 | 30 | 5.2 | 14.8 | 0.00 | 0.00 | 0.00 | 41 | 1003.9 |
| 20260509192343 | 49 | 9 | 7.8 | 12.2 | 0.00 | 0.00 | 0.00 | 39 | 1003.9 |
| 20260509191838 | 49 | 304 | 5.2 | 7.0 | 0.00 | 0.00 | 0.00 | 39 | 1003.5 |
| 20260509191334 | 49 | 340 | 3.5 | 3.5 | 0.00 | 0.00 | 0.00 | 39 | 1003.6 |
| 20260509190830 | 49 | 287 | 5.2 | 8.7 | 0.00 | 0.00 | 0.00 | 38 | 1003.5 |
| 20260509190327 | 50 | 293 | 4.3 | 6.1 | 0.00 | 0.00 | 0.00 | 37 | 1003.4 |
| 20260509185825 | 49 | 321 | 3.5 | 3.5 | 0.00 | 0.00 | 0.00 | 38 | 1003.3 |
| 20260509185321 | 50 | 342 | 7.0 | 9.6 | 0.00 | 0.00 | 0.00 | 37 | 1003.0 |
| 20260509184819 | 50 | 253 | 6.1 | 13.0 | 0.00 | 0.00 | 0.00 | 37 | 1003.1 |
| 20260509184315 | 50 | 302 | 7.0 | 12.2 | 0.00 | 0.00 | 0.00 | 37 | 1003.1 |
| 20260509183812 | 50 | 10 | 7.0 | 11.3 | 0.00 | 0.00 | 0.00 | 36 | 1002.7 |
| 20260509183307 | 51 | 17 | 6.1 | 9.6 | 0.00 | 0.00 | 0.00 | 36 | 1002.5 |
| 20260509182803 | 51 | 323 | 7.8 | 9.6 | 0.00 | 0.00 | 0.00 | 35 | 1002.4 |
| 20260509182300 | 51 | 275 | 1.7 | 1.7 | 0.00 | 0.00 | 0.00 | 35 | 1002.2 |
| 20260509181757 | 50 | 15 | 4.3 | 6.1 | 0.00 | 0.00 | 0.00 | 35 | 1002.2 |
| 20260509181255 | 50 | 305 | 3.5 | 6.1 | 0.00 | 0.00 | 0.00 | 35 | 1002.2 |
| 20260509180752 | 51 | 343 | 6.1 | 7.8 | 0.00 | 0.00 | 0.00 | 34 | 1001.9 |
| 20260509180248 | 52 | 287 | 5.2 | 7.0 | 0.00 | 0.00 | 0.00 | 33 | 1001.8 |
| 20260509175744 | 52 | 263 | 3.5 | 6.1 | 0.00 | 0.00 | 0.00 | 32 | 1001.8 |
| 20260509175241 | 51 | 272 | 4.3 | 6.1 | 0.00 | 0.00 | 0.00 | 33 | 1001.7 |
| 20260509174737 | 53 | 261 | 0.9 | 2.6 | 0.00 | 0.00 | 0.00 | 33 | 1001.4 |
| 20260509174232 | 52 | 239 | 2.6 | 3.5 | 0.00 | 0.00 | 0.00 | 32 | 1001.5 |
| 20260509173729 | 52 | 315 | 5.2 | 7.0 | 0.00 | 0.00 | 0.00 | 32 | 1001.2 |
| 20260509173224 | 53 | 294 | 3.5 | 6.1 | 0.00 | 0.00 | 0.00 | 32 | 1001.3 |
| 20260509172721 | 53 | 259 | 4.3 | 5.2 | 0.00 | 0.00 | 0.00 | 31 | 1001.0 |
| 20260509172217 | 53 | 299 | 7.0 | 9.6 | 0.00 | 0.00 | 0.00 | 31 | 1001.2 |
| 20260509171713 | 52 | 283 | 2.6 | 5.2 | 0.00 | 0.00 | 0.00 | 31 | 1001.3 |
| 20260509171209 | 53 | 325 | 9.6 | 12.2 | 0.00 | 0.00 | 0.00 | 30 | 1001.1 |
| 20260509170706 | 53 | 355 | 5.2 | 6.1 | 0.00 | 0.00 | 0.00 | 32 | 1001.2 |
| 20260509170202 | 55 | 315 | 6.1 | 12.2 | 0.00 | 0.00 | 0.00 | 30 | 1001.0 |
| 20260509165701 | 53 | 341 | 2.6 | 5.2 | 0.00 | 0.00 | 0.00 | 32 | 1000.9 |
| 20260509165156 | 52 | 328 | 4.3 | 5.2 | 0.00 | 0.00 | 0.00 | 31 | 1000.8 |
| 20260509164652 | 51 | 328 | 5.2 | 7.0 | 0.00 | 0.00 | 0.00 | 32 | 1000.5 |
| 20260509164148 | 51 | 6 | 7.0 | 9.6 | 0.00 | 0.00 | 0.00 | 31 | 1000.6 |
| 20260509163646 | 51 | 2 | 9.6 | 15.6 | 0.00 | 0.00 | 0.00 | 31 | 1000.8 |
| 20260509163142 | 52 | 357 | 3.5 | 6.1 | 0.00 | 0.00 | 0.00 | 31 | 1000.5 |
| 20260509162639 | 52 | 348 | 6.1 | 7.0 | 0.00 | 0.00 | 0.00 | 31 | 1000.4 |
| 20260509162135 | 51 | 337 | 3.5 | 3.5 | 0.00 | 0.00 | 0.00 | 32 | 1000.6 |
| 20260509161631 | 50 | 292 | 5.2 | 7.8 | 0.00 | 0.00 | 0.00 | 33 | 1000.6 |
| 20260509161126 | 50 | 3 | 3.5 | 5.2 | 0.00 | 0.00 | 0.00 | 33 | 1000.4 |
| 20260509160623 | 50 | 5 | 4.3 | 6.1 | 0.00 | 0.00 | 0.00 | 33 | 1000.5 |
| 20260509160118 | 50 | 344 | 3.5 | 5.2 | 0.00 | 0.00 | 0.00 | 33 | 1000.5 |
| 20260509155615 | 50 | 326 | 6.1 | 7.8 | 0.00 | 0.00 | 0.00 | 34 | 1000.5 |
| 20260509155111 | 49 | 4 | 7.8 | 9.6 | 0.00 | 0.00 | 0.00 | 34 | 1000.2 |
| 20260509154606 | 50 | 259 | 6.1 | 9.6 | 0.00 | 0.00 | 0.00 | 34 | 1000.2 |
| 20260509154104 | 49 | 357 | 7.0 | 11.3 | 0.00 | 0.00 | 0.00 | 34 | 1000.2 |
| 20260509153601 | 49 | 309 | 1.7 | 2.6 | 0.00 | 0.00 | 0.00 | 35 | 1000.0 |
| 20260509153058 | 49 | 265 | 2.6 | 2.6 | 0.00 | 0.00 | 0.00 | 35 | 1000.1 |
| 20260509152554 | 49 | 306 | 1.7 | 2.6 | 0.00 | 0.00 | 0.00 | 36 | 1000.2 |
| 20260509152051 | 49 | 339 | 5.2 | 7.0 | 0.00 | 0.00 | 0.00 | 35 | 1000.2 |
| 20260509151547 | 49 | 287 | 4.3 | 6.1 | 0.00 | 0.00 | 0.00 | 35 | 999.8 |
| 20260509151045 | 49 | 356 | 3.5 | 5.2 | 0.00 | 0.00 | 0.00 | 35 | 999.7 |
| 20260509150542 | 50 | 10 | 7.0 | 7.8 | 0.00 | 0.00 | 0.00 | 34 | 1000.0 |
| 20260509150035 | 50 | 312 | 4.3 | 6.1 | 0.00 | 0.00 | 0.00 | 34 | 999.7 |
| 20260509145530 | 50 | 301 | 5.2 | 8.7 | 0.00 | 0.00 | 0.00 | 33 | 999.5 |
| 20260509145026 | 50 | 262 | 4.3 | 5.2 | 0.00 | 0.00 | 0.00 | 33 | 999.7 |
| 20260509144523 | 50 | 329 | 2.6 | 5.2 | 0.00 | 0.00 | 0.00 | 35 | 999.4 |
| 20260509144020 | 50 | 281 | 4.3 | 7.8 | 0.00 | 0.00 | 0.00 | 35 | 999.3 |
| 20260509143517 | 50 | 250 | 2.6 | 3.5 | 0.00 | 0.00 | 0.00 | 36 | 999.3 |
| 20260509143015 | 50 | 277 | 5.2 | 7.0 | 0.00 | 0.00 | 0.00 | 35 | 999.2 |
| 20260509142510 | 49 | 5 | 4.3 | 7.8 | 0.00 | 0.00 | 0.00 | 36 | 999.0 |
| 20260509142006 | 49 | 313 | 4.3 | 7.0 | 0.00 | 0.00 | 0.00 | 36 | 999.1 |
| 20260509141503 | 49 | 310 | 5.2 | 7.0 | 0.00 | 0.00 | 0.00 | 37 | 999.1 |
| 20260509140959 | 48 | 317 | 4.3 | 6.1 | 0.00 | 0.00 | 0.00 | 38 | 999.0 |
| 20260509140455 | 48 | 13 | 4.3 | 6.1 | 0.00 | 0.00 | 0.00 | 39 | 999.2 |
| 20260509135954 | 48 | 8 | 3.5 | 5.2 | 0.00 | 0.00 | 0.00 | 40 | 999.0 |
| 20260509135451 | 48 | 334 | 1.7 | 1.7 | 0.00 | 0.00 | 0.00 | 40 | 999.1 |
| 20260509134948 | 48 | 335 | 1.7 | 1.7 | 0.00 | 0.00 | 0.00 | 41 | 999.0 |
| 20260509134446 | 48 | 7 | 2.6 | 2.6 | 0.00 | 0.00 | 0.00 | 40 | 999.0 |
| 20260509133943 | 48 | 352 | 2.6 | 5.2 | 0.00 | 0.00 | 0.00 | 40 | 999.0 |
| 20260509133439 | 48 | 359 | 5.2 | 7.8 | 0.00 | 0.00 | 0.00 | 39 | 998.9 |
| 20260509132938 | 49 | 307 | 4.3 | 6.1 | 0.00 | 0.00 | 0.00 | 38 | 998.9 |
| 20260509132435 | 49 | 332 | 4.3 | 7.8 | 0.00 | 0.00 | 0.00 | 38 | 998.9 |
| 20260509131932 | 48 | 12 | 5.2 | 7.8 | 0.00 | 0.00 | 0.00 | 38 | 998.9 |
| 20260509131429 | 48 | 302 | 4.3 | 6.1 | 0.00 | 0.00 | 0.00 | 40 | 999.0 |
| 20260509130926 | 48 | 36 | 4.3 | 7.0 | 0.00 | 0.00 | 0.00 | 43 | 999.0 |
| 20260509130421 | 48 | 283 | 3.5 | 3.5 | 0.00 | 0.00 | 0.00 | 43 | 999.0 |
| 20260509125919 | 48 | 277 | 1.7 | 2.6 | 0.00 | 0.00 | 0.00 | 45 | 999.0 |
| 20260509125415 | 47 | 312 | 2.6 | 3.5 | 0.00 | 0.00 | 0.00 | 48 | 998.7 |
| 20260509124911 | 47 | 344 | 3.5 | 6.1 | 0.00 | 0.00 | 0.00 | 47 | 998.8 |
| 20260509124408 | 47 | 259 | 2.6 | 3.5 | 0.00 | 0.00 | 0.00 | 48 | 998.6 |
| 20260509123906 | 47 | 326 | 0.9 | 1.7 | 0.00 | 0.00 | 0.00 | 49 | 998.7 |
| 20260509123403 | 47 | 1 | 3.5 | 5.2 | 0.00 | 0.00 | 0.00 | 48 | 998.8 |
| 20260509122859 | 47 | 261 | 3.5 | 6.1 | 0.00 | 0.00 | 0.00 | 48 | 998.7 |
| 20260509122356 | 46 | 322 | 1.7 | 2.6 | 0.00 | 0.00 | 0.00 | 48 | 998.6 |
| 20260509121852 | 46 | 285 | 1.7 | 1.7 | 0.00 | 0.00 | 0.00 | 49 | 998.7 |
| 20260509121350 | 46 | 317 | 2.6 | 2.6 | 0.00 | 0.00 | 0.00 | 49 | 998.4 |
| 20260509120848 | 46 | 263 | 2.6 | 2.6 | 0.00 | 0.00 | 0.00 | 49 | 998.6 |
| 20260509120345 | 46 | 1 | 3.5 | 5.2 | 0.00 | 0.00 | 0.00 | 50 | 998.4 |
| 20260509115843 | 46 | 294 | 3.5 | 5.2 | 0.00 | 0.00 | 0.00 | 50 | 998.2 |
| 20260509115340 | 45 | 296 | 0.9 | 0.9 | 0.00 | 0.00 | 0.00 | 54 | 998.3 |
| 20260509114838 | 45 | 310 | 0.9 | 0.9 | 0.00 | 0.00 | 0.00 | 55 | 998.3 |
| 20260509114336 | 45 | 309 | 0.9 | 1.7 | 0.00 | 0.00 | 0.00 | 54 | 998.1 |
| 20260509113835 | 44 | 331 | 0.0 | 0.0 | 0.00 | 0.00 | 0.00 | 54 | 998.1 |
| 20260509113332 | 44 | 331 | 0.0 | 0.0 | 0.00 | 0.00 | 0.00 | 54 | 998.1 |
| 20260509112829 | 44 | 6 | 1.7 | 1.7 | 0.00 | 0.00 | 0.00 | 54 | 998.0 |
| 20260509112326 | 44 | 299 | 1.7 | 1.7 | 0.00 | 0.00 | 0.00 | 55 | 998.0 |
| 20260509111823 | 44 | 357 | 0.9 | 1.7 | 0.00 | 0.00 | 0.00 | 55 | 998.0 |
| 20260509111320 | 44 | 325 | 0.0 | 0.0 | 0.00 | 0.00 | 0.00 | 55 | 998.0 |
| 20260509110818 | 44 | 324 | 3.5 | 3.5 | 0.00 | 0.00 | 0.00 | 54 | 997.9 |
| 20260509110313 | 44 | 358 | 0.0 | 0.0 | 0.00 | 0.00 | 0.00 | 56 | 997.8 |
| 20260509105812 | 44 | 344 | 0.0 | 0.0 | 0.00 | 0.00 | 0.00 | 57 | 997.9 |
| 20260509105310 | 44 | 349 | 0.9 | 0.9 | 0.00 | 0.00 | 0.00 | 56 | 997.8 |
| 20260509104806 | 44 | 329 | 0.9 | 0.9 | 0.00 | 0.00 | 0.00 | 57 | 997.9 |
| 20260509104303 | 44 | 303 | 0.9 | 0.9 | 0.00 | 0.00 | 0.00 | 57 | 998.1 |
| 20260509103801 | 44 | 312 | 0.9 | 1.7 | 0.00 | 0.00 | 0.00 | 57 | 997.9 |
| 20260509103258 | 44 | 341 | 0.0 | 0.9 | 0.00 | 0.00 | 0.00 | 58 | 998.0 |
| 20260509102756 | 44 | 12 | 3.5 | 3.5 | 0.00 | 0.00 | 0.00 | 57 | 997.4 |
| 20260509102253 | 44 | 338 | 1.7 | 2.6 | 0.00 | 0.00 | 0.00 | 58 | 997.6 |
| 20260509101749 | 44 | 0 | 1.7 | 1.7 | 0.00 | 0.00 | 0.00 | 58 | 997.7 |
| 20260509101245 | 43 | 315 | 2.6 | 2.6 | 0.00 | 0.00 | 0.00 | 61 | 997.8 |
| 20260509100743 | 42 | 300 | 0.9 | 0.9 | 0.00 | 0.00 | 0.00 | 64 | 997.9 |
| 20260509100240 | 42 | 323 | 0.0 | 0.9 | 0.00 | 0.00 | 0.00 | 66 | 997.8 |
| 20260509095736 | 41 | 314 | 1.7 | 1.7 | 0.00 | 0.00 | 0.00 | 67 | 997.6 |
| 20260509095234 | 41 | 313 | 0.0 | 0.9 | 0.00 | 0.00 | 0.00 | 67 | 997.8 |
| 20260509094731 | 41 | 318 | 0.0 | 0.0 | 0.00 | 0.00 | 0.00 | 68 | 997.7 |
| 20260509094228 | 41 | 297 | 0.9 | 0.9 | 0.00 | 0.00 | 0.00 | 69 | 998.0 |
| 20260509093726 | 41 | 323 | 0.9 | 0.9 | 0.00 | 0.00 | 0.00 | 70 | 997.7 |
| 20260509093223 | 40 | 302 | 0.9 | 1.7 | 0.00 | 0.00 | 0.00 | 73 | 997.7 |
| 20260509092721 | 38 | 313 | 0.0 | 0.9 | 0.00 | 0.00 | 0.00 | 75 | 997.7 |
| 20260509092219 | 36 | 325 | 0.0 | 0.9 | 0.00 | 0.00 | 0.00 | 81 | 997.7 |
| 20260509091717 | 36 | 344 | 0.9 | 0.9 | 0.00 | 0.00 | 0.00 | 85 | 997.3 |
| 20260509091212 | 35 | 339 | 0.0 | 0.0 | 0.00 | 0.00 | 0.00 | 87 | 997.4 |
| 20260509090710 | 35 | 313 | 0.9 | 0.9 | 0.00 | 0.00 | 0.00 | 88 | 997.7 |
| 20260509090207 | 35 | 312 | 0.0 | 0.0 | 0.00 | 0.00 | 0.00 | 87 | 997.6 |
| 20260509085705 | 35 | 312 | 0.0 | 0.0 | 0.00 | 0.00 | 0.00 | 86 | 997.4 |
| 20260509085201 | 35 | 312 | 0.0 | 0.0 | 0.00 | 0.00 | 0.00 | 87 | 997.9 |
| 20260509084658 | 35 | 312 | 0.0 | 0.0 | 0.00 | 0.00 | 0.00 | 87 | 997.8 |
| 20260509084155 | 35 | 312 | 0.0 | 0.0 | 0.00 | 0.00 | 0.00 | 87 | 997.6 |
| 20260509083653 | 35 | 312 | 0.0 | 0.0 | 0.00 | 0.00 | 0.00 | 86 | 997.4 |
| 20260509083149 | 35 | 312 | 0.0 | 0.0 | 0.00 | 0.00 | 0.00 | 86 | 997.8 |
| 20260509082646 | 35 | 313 | 0.0 | 0.0 | 0.00 | 0.00 | 0.00 | 87 | 997.6 |
| 20260509082143 | 35 | 312 | 0.0 | 0.0 | 0.00 | 0.00 | 0.00 | 87 | 997.7 |
| 20260509081640 | 34 | 319 | 0.0 | 0.0 | 0.00 | 0.00 | 0.00 | 87 | 997.9 |
| 20260509081137 | 34 | 29 | 0.0 | 0.0 | 0.00 | 0.00 | 0.00 | 86 | 997.6 |
| 20260509080635 | 34 | 29 | 0.0 | 0.0 | 0.00 | 0.00 | 0.00 | 86 | 997.4 |
| 20260509080133 | 34 | 28 | 0.0 | 0.0 | 0.00 | 0.00 | 0.00 | 85 | 997.4 |
| 20260509075631 | 33 | 29 | 0.0 | 0.0 | 0.00 | 0.00 | 0.00 | 86 | 997.4 |
| 20260509075128 | 33 | 29 | 0.0 | 0.0 | 0.00 | 0.00 | 0.00 | 87 | 997.7 |
| 20260509074625 | 33 | 29 | 0.0 | 0.0 | 0.00 | 0.00 | 0.00 | 87 | 997.8 |
| 20260509074121 | 33 | 29 | 0.0 | 0.0 | 0.00 | 0.00 | 0.00 | 87 | 997.7 |
| 20260509073618 | 33 | 29 | 0.0 | 0.0 | 0.00 | 0.00 | 0.00 | 85 | 998.0 |
| 20260509073114 | 33 | 29 | 0.0 | 0.0 | 0.00 | 0.00 | 0.00 | 85 | 998.0 |
| 20260509072611 | 33 | 29 | 0.0 | 0.0 | 0.00 | 0.00 | 0.00 | 84 | 997.9 |
| 20260509072108 | 33 | 29 | 0.0 | 0.0 | 0.00 | 0.00 | 0.00 | 87 | 998.2 |
| 20260509071605 | 33 | 29 | 0.0 | 0.0 | 0.00 | 0.00 | 0.00 | 86 | 998.1 |
| 20260509071102 | 33 | 29 | 0.0 | 0.0 | 0.00 | 0.00 | 0.00 | 85 | 998.2 |
| 20260509070559 | 33 | 29 | 0.0 | 0.0 | 0.00 | 0.00 | 0.00 | 85 | 998.3 |
| 20260509070055 | 32 | 29 | 0.0 | 0.0 | 0.00 | 0.00 | 0.00 | 86 | 998.4 |
| 20260509065551 | 32 | 29 | 0.0 | 0.0 | 0.00 | 0.00 | 0.00 | 84 | 998.3 |
| 20260509065047 | 32 | 29 | 0.0 | 0.0 | 0.00 | 0.00 | 0.00 | 87 | 998.6 |
| 20260509064545 | 31 | 29 | 0.0 | 0.0 | 0.00 | 0.00 | 0.00 | 88 | 998.5 |
| 20260509064043 | 31 | 29 | 0.0 | 0.0 | 0.00 | 0.00 | 0.00 | 89 | 998.7 |
| 20260509063538 | 31 | 29 | 0.0 | 0.0 | 0.00 | 0.00 | 0.00 | 88 | 998.7 |
| 20260509063036 | 30 | 29 | 0.0 | 0.0 | 0.00 | 0.00 | 0.00 | 88 | 998.6 |
| 20260509062533 | 30 | 29 | 0.0 | 0.0 | 0.00 | 0.00 | 0.00 | 89 | 998.6 |
| 20260509062030 | 30 | 29 | 0.0 | 0.0 | 0.00 | 0.00 | 0.00 | 88 | 998.8 |
| 20260509061527 | 31 | 29 | 0.0 | 0.0 | 0.00 | 0.00 | 0.00 | 88 | 998.8 |
| 20260509061024 | 31 | 29 | 0.0 | 0.0 | 0.00 | 0.00 | 0.00 | 86 | 998.7 |
| 20260509060522 | 31 | 29 | 0.0 | 0.0 | 0.00 | 0.00 | 0.00 | 88 | 998.9 |
| 20260509060017 | 31 | 29 | 0.0 | 0.0 | 0.00 | 0.00 | 0.00 | 87 | 999.1 |
| 20260509055513 | 31 | 29 | 0.0 | 0.0 | 0.00 | 0.00 | 0.00 | 87 | 999.2 |
| 20260509055009 | 30 | 29 | 0.0 | 0.0 | 0.00 | 0.00 | 0.00 | 85 | 999.4 |
| 20260509054506 | 31 | 29 | 0.0 | 0.0 | 0.00 | 0.00 | 0.00 | 86 | 999.4 |
| 20260509054004 | 31 | 29 | 0.0 | 0.0 | 0.00 | 0.00 | 0.00 | 85 | 999.5 |
| 20260509053502 | 31 | 29 | 0.0 | 0.0 | 0.00 | 0.00 | 0.00 | 85 | 999.3 |
| 20260509052959 | 31 | 29 | 0.0 | 0.0 | 0.00 | 0.00 | 0.00 | 84 | 999.3 |
| 20260509052456 | 32 | 29 | 0.0 | 0.0 | 0.00 | 0.00 | 0.00 | 85 | 999.5 |
| 20260509051954 | 32 | 29 | 0.0 | 0.0 | 0.00 | 0.00 | 0.00 | 83 | 999.7 |
| 20260509051452 | 32 | 29 | 0.0 | 0.0 | 0.00 | 0.00 | 0.00 | 82 | 999.4 |
| 20260509050949 | 33 | 29 | 0.0 | 0.0 | 0.00 | 0.00 | 0.00 | 83 | 999.7 |
| 20260509050445 | 33 | 29 | 0.0 | 0.0 | 0.00 | 0.00 | 0.00 | 83 | 999.6 |
| 20260509045942 | 33 | 29 | 0.0 | 0.0 | 0.00 | 0.00 | 0.00 | 83 | 999.8 |
| 20260509045439 | 34 | 29 | 0.0 | 0.0 | 0.00 | 0.00 | 0.00 | 82 | 999.8 |
| 20260509044936 | 34 | 29 | 0.0 | 0.0 | 0.00 | 0.00 | 0.00 | 79 | 1000.0 |
| 20260509044434 | 34 | 29 | 0.0 | 0.0 | 0.00 | 0.00 | 0.00 | 82 | 1000.2 |
| 20260509043931 | 34 | 29 | 0.0 | 0.0 | 0.00 | 0.00 | 0.00 | 82 | 1000.2 |
| 20260509043426 | 35 | 29 | 0.0 | 0.0 | 0.00 | 0.00 | 0.00 | 81 | 1000.2 |
| 20260509042922 | 35 | 29 | 0.0 | 0.0 | 0.00 | 0.00 | 0.00 | 81 | 1000.3 |
| 20260509042420 | 35 | 29 | 0.0 | 0.0 | 0.00 | 0.00 | 0.00 | 78 | 1000.4 |
| 20260509041915 | 35 | 29 | 0.0 | 0.0 | 0.00 | 0.00 | 0.00 | 77 | 1000.5 |
| 20260509041413 | 35 | 29 | 0.0 | 0.0 | 0.00 | 0.00 | 0.00 | 75 | 1000.6 |
| 20260509040911 | 35 | 29 | 0.0 | 0.0 | 0.00 | 0.00 | 0.00 | 79 | 1000.6 |
| 20260509040408 | 36 | 29 | 0.0 | 0.0 | 0.00 | 0.00 | 0.00 | 76 | 1000.7 |
| 20260509035905 | 36 | 29 | 0.0 | 0.0 | 0.00 | 0.00 | 0.00 | 74 | 1000.9 |
| 20260509035402 | 36 | 29 | 0.0 | 0.0 | 0.00 | 0.00 | 0.00 | 78 | 1001.1 |
| 20260509034858 | 37 | 29 | 0.0 | 0.0 | 0.00 | 0.00 | 0.00 | 73 | 1001.0 |
| 20260509034356 | 37 | 29 | 0.0 | 0.0 | 0.00 | 0.00 | 0.00 | 73 | 1001.1 |
| 20260509033853 | 37 | 29 | 0.0 | 0.0 | 0.00 | 0.00 | 0.00 | 75 | 1001.0 |
| 20260509033350 | 37 | 29 | 0.0 | 0.0 | 0.00 | 0.00 | 0.00 | 67 | 1001.2 |
| 20260509032846 | 38 | 29 | 0.0 | 0.0 | 0.00 | 0.00 | 0.00 | 73 | 1001.4 |
| 20260509032343 | 38 | 29 | 0.0 | 0.0 | 0.00 | 0.00 | 0.00 | 70 | 1001.4 |
| 20260509031842 | 39 | 29 | 0.0 | 0.0 | 0.00 | 0.00 | 0.00 | 68 | 1001.5 |
| 20260509031333 | 39 | 29 | 0.0 | 0.0 | 0.00 | 0.00 | 0.00 | 68 | 1001.3 |
| 20260509030831 | 40 | 29 | 0.0 | 0.0 | 0.00 | 0.00 | 0.00 | 65 | 1001.4 |
| 20260509030328 | 41 | 29 | 0.0 | 0.0 | 0.00 | 0.00 | 0.00 | 59 | 1001.6 |
| 20260509025825 | 42 | 29 | 0.0 | 0.0 | 0.00 | 0.00 | 0.00 | 58 | 1001.8 |
| 20260509025320 | 43 | 29 | 0.0 | 0.0 | 0.00 | 0.00 | 0.00 | 54 | 1001.6 |
| 20260509024816 | 44 | 29 | 0.0 | 0.0 | 0.00 | 0.00 | 0.00 | 52 | 1001.5 |
| 20260509024312 | 45 | 29 | 0.0 | 0.0 | 0.00 | 0.00 | 0.00 | 51 | 1001.5 |
| 20260509023810 | 46 | 29 | 0.0 | 0.9 | 0.00 | 0.00 | 0.00 | 48 | 1001.6 |
| 20260509023307 | 45 | 109 | 0.0 | 0.0 | 0.00 | 0.00 | 0.00 | 45 | 1001.7 |
| 20260509022803 | 45 | 108 | 1.7 | 1.7 | 0.00 | 0.00 | 0.00 | 46 | 1001.9 |
| 20260509022301 | 45 | 245 | 0.0 | 0.0 | 0.00 | 0.00 | 0.00 | 48 | 1002.0 |
| 20260509021757 | 45 | 240 | 1.7 | 2.6 | 0.00 | 0.00 | 0.00 | 48 | 1001.7 |
| 20260509021255 | 46 | 122 | 0.9 | 1.7 | 0.00 | 0.00 | 0.00 | 45 | 1002.0 |
| 20260509020752 | 46 | 351 | 0.0 | 0.0 | 0.00 | 0.00 | 0.00 | 47 | 1002.0 |
| 20260509020250 | 46 | 351 | 0.0 | 0.0 | 0.00 | 0.00 | 0.00 | 49 | 1002.2 |
| 20260509015747 | 47 | 79 | 0.0 | 0.0 | 0.00 | 0.00 | 0.00 | 48 | 1002.2 |
| 20260509015245 | 47 | 80 | 0.0 | 0.0 | 0.00 | 0.00 | 0.00 | 47 | 1002.0 |
| 20260509014741 | 48 | 80 | 0.0 | 0.0 | 0.00 | 0.00 | 0.00 | 44 | 1002.0 |
| 20260509014239 | 48 | 80 | 0.0 | 0.0 | 0.00 | 0.00 | 0.00 | 43 | 1002.0 |
| 20260509013735 | 49 | 44 | 0.9 | 0.9 | 0.00 | 0.00 | 0.00 | 41 | 1002.1 |
| 20260509013231 | 49 | 30 | 0.9 | 0.9 | 0.00 | 0.00 | 0.00 | 41 | 1002.0 |
| 20260509012728 | 49 | 93 | 0.0 | 0.0 | 0.00 | 0.00 | 0.00 | 42 | 1001.8 |
| 20260509012224 | 49 | 93 | 0.0 | 0.0 | 0.00 | 0.00 | 0.00 | 41 | 1001.9 |